Weather History for KGUP - February, 2014

Change the Weather History Date:

Thursday, February 6, 2014

  Actual Average Record
Temperature  
Mean Temperature 27 °F -  
Max Temperature 37 °F 44 °F 64 °F (2015)
Min Temperature 17 °F 14 °F -19 °F (1989)
Degree Days  
Heating Degree Days 38    
Moisture  
Dew Point 23 °F    
Average Humidity 81    
Maximum Humidity 96    
Minimum Humidity 48    
Precipitation  
Precipitation 0.05 in - - ()
Sea Level Pressure  
Sea Level Pressure 30.02 in    
Wind  
Wind Speed 3 mph (SW)    
Max Wind Speed 18 mph    
Max Gust Speed 24 mph    
Visibility 8 miles    
Events Snow    
Averages and records for this station are not official NWS values.
T = Trace of Precipitation, MM = Missing Value Source: NWS Daily Summary

Daily Weather History Graph

Daily Weather History Graph

Search for Another Location

Airport or City:

Trip Planner

Search our weather history database for the weather conditions in past years. The results will help you decide how hot, cold, wet, or windy it might be!

Date:

Astronomy

Feb. 06, 2014 Rise Set
Actual Time 7:10 AM MST 5:48 PM MST
Civil Twilight 6:44 AM MST 6:14 PM MST
Nautical Twilight 6:13 AM MST 6:45 PM MST
Astronomical Twilight 5:44 AM MST 7:14 PM MST
Moon 11:22 AM MST (2/6) 12:29 AM MST (2/6)
Length of Visible Light 11h 30m
Length of Day
10h 37m
Waxing Crescent, 50% of the Moon is Illuminated
Feb 6
Waxing Crescent
Feb 6
First Quarter
Feb 14
Full
Feb 22
Last Quarter
Mar 1
New

Hourly Weather History & Observations

Time (MST) Temp. Windchill Dew Point Humidity Pressure Visibility Wind Dir Wind Speed Gust Speed Precip Events Conditions
12:53 AM 18.0 °F - 16.0 °F 92% 30.13 in 10.0 mi Calm Calm - N/A   Clear
1:03 AM 19.9 °F 14.9 °F 18.0 °F 92% 30.02 in 10.0 mi ESE 3.5 mph - N/A   Partly Cloudy
1:33 AM 17.1 °F - 15.1 °F 92% 30.03 in 10.0 mi Calm Calm - N/A   Mostly Cloudy
1:53 AM 18.0 °F - 15.1 °F 88% 30.14 in 10.0 mi Calm Calm - N/A   Overcast
2:23 AM 21.0 °F - 18.0 °F 88% 30.02 in 10.0 mi Calm Calm - N/A   Overcast
2:48 AM 23.0 °F - 21.2 °F 93% 30.01 in 10.0 mi Calm Calm - N/A   Mostly Cloudy
2:53 AM 23.0 °F - 19.9 °F 88% 30.08 in 10.0 mi Calm Calm - N/A   Mostly Cloudy
3:13 AM 24.1 °F - 21.0 °F 88% 30.01 in 10.0 mi Calm Calm - N/A   Scattered Clouds
3:50 AM 21.2 °F 14.9 °F 19.4 °F 93% 30.01 in 10.0 mi SW 4.6 mph - N/A   Mostly Cloudy
3:53 AM 21.0 °F 14.6 °F 19.9 °F 96% 30.09 in 10.0 mi SW 4.6 mph - N/A   Mostly Cloudy
4:53 AM 24.1 °F - 21.0 °F 88% 30.07 in 10.0 mi Calm Calm - N/A   Overcast
5:53 AM 26.1 °F - 23.0 °F 88% 30.08 in 10.0 mi Calm Calm - N/A   Overcast
6:53 AM 27.0 °F - 24.1 °F 89% 30.08 in 10.0 mi Calm Calm - N/A   Overcast
7:53 AM 28.0 °F 24.2 °F 24.1 °F 85% 30.11 in 10.0 mi West 3.5 mph - N/A   Overcast
8:53 AM 28.9 °F 22.8 °F 25.0 °F 85% 30.13 in 10.0 mi SW 5.8 mph - N/A   Overcast
9:53 AM 30.9 °F 24.3 °F 25.0 °F 79% 30.14 in 10.0 mi South 6.9 mph - N/A   Mostly Cloudy
10:01 AM 32.0 °F 25.6 °F 25.0 °F 75% 30.04 in 10.0 mi SSE 6.9 mph - N/A   Scattered Clouds
10:53 AM 34.0 °F 28.0 °F 25.0 °F 70% 30.12 in 10.0 mi SSE 6.9 mph - N/A   Scattered Clouds
11:02 AM 35.1 °F 29.3 °F 25.0 °F 67% 30.03 in 10.0 mi South 6.9 mph - N/A   Mostly Cloudy
11:53 AM 36.0 °F 33.3 °F 24.1 °F 62% 30.09 in 10.0 mi Variable 3.5 mph - N/A   Mostly Cloudy
12:53 PM 37.9 °F 30.5 °F 21.9 °F 53% 30.06 in 10.0 mi SW 11.5 mph - N/A   Scattered Clouds
1:53 PM 37.9 °F 29.6 °F 21.0 °F 51% 30.05 in 10.0 mi SW 13.8 mph - N/A   Overcast
2:53 PM 37.9 °F 28.2 °F 19.9 °F 48% 30.00 in 10.0 mi SW 18.4 mph 24.2 mph N/A   Overcast
3:53 PM 37.0 °F 28.9 °F 21.0 °F 52% 30.02 in 10.0 mi WSW 12.7 mph - N/A   Overcast
4:53 PM 37.0 °F 30.4 °F 19.9 °F 50% 29.98 in 10.0 mi SW 9.2 mph - N/A   Overcast
5:53 PM 35.1 °F 26.9 °F 19.9 °F 54% 29.99 in 10.0 mi South 11.5 mph - N/A   Overcast
6:53 PM 32.0 °F 27.5 °F 19.9 °F 61% 30.00 in 10.0 mi South 4.6 mph - N/A   Mostly Cloudy
7:53 PM 32.0 °F 27.5 °F 24.1 °F 73% 30.00 in 10.0 mi SW 4.6 mph - N/A   Overcast
8:04 PM 30.9 °F 26.2 °F 25.0 °F 79% 29.94 in 5.0 mi WSW 4.6 mph - 0.00 in Snow Light Snow
8:45 PM 30.0 °F 26.5 °F 28.0 °F 92% 29.94 in 1.8 mi West 3.5 mph - 0.00 in Snow Light Snow
8:53 PM 30.0 °F 25.2 °F 28.0 °F 92% 30.01 in 2.0 mi West 4.6 mph - 0.00 in Snow Light Snow
9:02 PM 30.0 °F 24.1 °F 28.0 °F 92% 29.95 in 1.8 mi West 5.8 mph - 0.01 in Snow Light Snow
9:17 PM 30.0 °F 25.2 °F 28.9 °F 96% 29.95 in 0.8 mi WSW 4.6 mph - 0.03 in Snow Light Snow
9:22 PM 30.0 °F 26.5 °F 28.9 °F 96% 29.95 in 1.0 mi WSW 3.5 mph - 0.03 in Snow Light Snow
9:42 PM 30.0 °F 26.5 °F 28.9 °F 96% 29.94 in 1.5 mi South 3.5 mph - 0.04 in Snow Light Snow
9:53 PM 30.0 °F 26.5 °F 28.9 °F 96% 29.99 in 2.5 mi South 3.5 mph - 0.04 in Snow Light Snow
10:21 PM 30.0 °F - 28.0 °F 92% 29.94 in 4.0 mi Calm Calm - 0.01 in Snow Light Snow
10:40 PM 30.0 °F 24.1 °F 28.9 °F 96% 29.94 in 10.0 mi SSW 5.8 mph - 0.01 in   Overcast
10:53 PM 30.0 °F 24.1 °F 28.9 °F 96% 29.97 in 10.0 mi SSW 5.8 mph - 0.01 in   Overcast
11:53 PM 30.9 °F 24.3 °F 28.0 °F 89% 29.95 in 10.0 mi SW 6.9 mph - N/A   Overcast